This demonstration page uses our WeatherBlox Daily Observations layout. Learn more.

Hourly Observations for December 11, 2016

Temp ( °F °C ) Dew Point ( °F °C ) Humidity (%) Winds ( mph kmh ) Pressure ( in mb ) Visibility ( mi km ) Precip ( " mm )
12:54 am 00:54 Clear 32 0 21 -6.1 64 64 SSE 8 13 29.84 1011 10 16.0934 0 0
1:54 am 01:54 Clear 30 -1.1 21 -6.1 69 69 SSE 9 15 29.81 1010 10 16.0934 0 0
2:54 am 02:54 Clear 29 -1.7 21 -6.1 72 72 SE 5 7 29.8 1009 10 16.0934 0 0
3:54 am 03:54 Clear 30 -1.1 22 -5.6 72 72 SE 6 9 29.79 1009 10 16.0934 0 0
4:54 am 04:54 Clear 28 -2.2 22 -5.6 78 78 N 6 9 29.8 1009 10 16.0934 0 0
5:47 am 05:47 Mostly Cloudy 28 -2.2 22 -5.6 78 78 N 5 7 29.83 1010 10 16.0934 0 0
5:54 am 05:54 Cloudy 28 -2.2 22 -5.6 78 78 NNW 5 7 29.8 1009 10 16.0934 0 0
6:12 am 06:12 Cloudy 28 -2 21 -6 74 74 NNW 3 6 29.83 1010 10 16.0934 0 0
6:54 am 06:54 Partly Cloudy 29 -1.7 22 -5.6 75 75 NNW 7 11 29.81 1010 10 16.0934 0 0
7:54 am 07:54 Sunny 29 -1.7 22 -5.6 75 75 NNW 6 9 29.82 1010 10 16.0934 0 0
8:54 am 08:54 Mostly Cloudy 30 -1.1 23 -5 75 75 NNW 7 11 29.84 1011 10 16.0934 0 0
9:54 am 09:54 Cloudy 32 0 23 -5 69 69 NNW 18 30 29.87 1011 10 16.0934 0 0
10:54 am 10:54 Cloudy 32 0 22 -5.6 66 66 NNW 23 37 29.91 1013 10 16.0934 0 0
11:54 am 11:54 Mostly Sunny 32 0 22 -5.6 66 66 NNW 25 41 29.93 1014 9 14.48406 0 0
12:47 pm 12:47 Mostly Cloudy 31 -0.6 22 -5.6 69 69 N 22 35 29.97 1015 9 14.48406 0 0
12:54 pm 12:54 Cloudy 30 -1.1 21 -6.1 69 69 NNW 22 35 29.94 1014 9 14.48406 0 0
1:51 pm 13:51 Cloudy 30 -1 21 -6 69 69 N 17 28 29.97 1015 10 16.0934 0 0
1:54 pm 13:54 Mostly Cloudy 30 -1.1 21 -6.1 69 69 N 16 26 29.95 1014 10 16.0934 0 0
2:19 pm 14:19 Mostly Cloudy 30 -1.1 21 -6.1 69 69 N 14 22 29.97 1015 10 16.0934 0 0
2:54 pm 14:54 Mostly Cloudy 30 -1.1 20 -6.7 66 66 NW 17 28 29.98 1015 10 16.0934 0 0
3:54 pm 15:54 Partly Cloudy 28 -2.2 18 -7.8 66 66 NNW 15 24 30.01 1016 10 16.0934 0 0
4:54 pm 16:54 Sunny 25 -3.9 16 -8.9 69 69 NNW 13 20 30.04 1017 10 16.0934 0 0
5:54 pm 17:54 Clear 22 -5.6 14 -10 71 71 NNW 10 17 30.1 1019 10 16.0934 0 0
6:54 pm 18:54 Partly Cloudy 21 -6.1 11 -11.7 65 65 NNW 18 30 30.13 1020 10 16.0934 0 0
7:54 pm 19:54 Clear 20 -6.7 11 -11.7 68 68 NNW 14 22 30.14 1021 10 16.0934 0 0
8:54 pm 20:54 Clear 18 -7.8 10 -12.2 71 71 NNW 8 13 30.16 1021 10 16.0934 0 0
9:54 pm 21:54 Clear 13 -10.6 8 -13.3 81 81 Calm 30.16 1021 10 16.0934 0 0
10:54 pm 22:54 Clear 14 -10 8 -13.3 77 77 Calm 30.16 1021 10 16.0934 0 0
11:54 pm 23:54 Clear 14 -10 9 -12.8 80 80 W 5 7 30.18 1022 10 16.0934 0 0

Powered by AerisWeather